IRIDIUM 64

Last updated on Wed Nov 29 2017 00:19:03 GMT+0000 (Coordinated Universal Time)

1 25287U 98021C 17332.46134433 -.00000024 00000-0 -15564-4 0 9991 2 25287 86.3955 155.3303 0002046 83.6799 276.4629 14.34219339 28540
UTC large
Height (km)
Speed (km/s)
/
Latitude / Longitude
Inclination (degrees)
Orbital Period (minutes)
Azimuth
Elevation
Range (km)
Doppler Factor

Next 0 passes for location: London (51.5072 / 0.1276)

Sorry there are no passes over London.
IRIDIUM 64